Location: Paddlesworth
(51.1000°N, 1.1333°E)
Time: 08:37:57
(UTC+00:00)

SeaSat 1 - Pass Details

Date: 11 May 2021
Orbit: 744 x 747 km, 108.0° (Epoch: 20 June)

Event Time Altitude Azimuth Distance (km) Brightness Sun altitude
Rises 23:01:54 0° 42° (NE) 3,201 6.2 -19.9°
Reaches altitude 10° 23:04:51 10° 60° (ENE) 2,272 5.2 -20.0°
Maximum altitude 23:08:16 19° 104° (ESE) 1,749 4.1 -20.1°
Enters shadow 23:08:32 19° 108° (ESE) 1,752 4.1 -20.1°
